TIME,DELAY(SENSOR),PRES,OXYGEN,RAWTEMP,T(OPTODE),TCPHASE,FLUOR,BETA(BETA700),BETA(BETA412),BETA(BETA440),CDOM,C(CSC),ED(ED411.90),ED(ED443.80),ED(ED489.40),ED(ED554.70),LU(LU412.20),LU(LU443.80),LU(LU489.40),LU(LU555.00),COMP,TILTX,TILTY,CHECK
1359069674,5803,867.6300048828125000,167.8596038818359400,450.0504150390625000,9.0713300704956050,39.2048187255859400,55,114,97,79,80,12171,2146961755,2147513316,2147288256,2147504987,2147088036,2146933513,2147706596,2147122971,2156,-1,9,3801
1359073270,5805,969.0300292968750000,205.4147033691406200,512.5507202148438000,7.1395859718322750,37.7897109985351560,55,110,97,79,81,12165,2146960969,2147515968,2147296493,2147518043,2147088521,2146928082,2147718491,2147122194,2977,-1,9,54210
1359076870,5806,983.7899780273438000,210.0823974609375000,518.2015991210938000,6.9636769294738770,37.6120109558105500,55,111,96,78,80,12166,2146962633,2147516553,2147298249,2147517476,2147088941,2146923556,2147722057,2147123584,3457,-1,9,14175
1359080470,5806,989.5100097656250000,210.5164031982422000,518.7993774414062000,6.9450559616088870,37.5970115661621100,59,135,98,79,81,12166,2146962880,2147516096,2147299812,2147520256,2147086875,2146930816,2147723840,2147121380,397,-1,8,14028
1359084070,5804,997.0900268554688000,214.1900024414062500,521.2490234375000000,6.8687181472778320,37.4266395568847660,55,112,97,78,80,12162,2146962998,2147518317,2147298386,2147520640,2147088640,2146925193,2147722093,2147125193,2912,-1,9,10445
1359087670,5808,994.4799804687500000,215.7010955810547000,521.6182861328125000,6.8572077751159670,37.3465118408203100,55,113,97,79,81,12162,2146963958,2147518738,2147298194,2147522962,2147089106,2146924736,2147724516,2147122404,64,0,8,17768
1359091270,5805,996.6799926757812000,215.5959014892578000,521.5869140625000000,6.8581857681274410,37.3523292541503900,55,110,97,78,81,12161,2146962944,2147517814,2147297408,2147519040,2147088310,2146924708,2147724836,2147121709,3414,0,9,17331
1359094870,5805,998.7399902343750000,216.0832061767578000,522.8076782226562000,6.8201251029968260,37.3460502624511700,55,109,99,78,80,12159,2146960640,2147515812,2147297490,2147517083,2147089746,2146921005,2147721142,2147123968,162,0,8,46794
1359098470,5806,999.8599853515625000,213.4916992187500000,522.7385864257812000,6.8222770690917970,37.4937400817871100,56,118,98,80,80,12155,2146962422,2147512740,2147300050,2147520310,2147085257,2146923894,2147719168,2147121042,3401,-1,8,38779
1359102070,5807,1002.7100219726562000,212.7458038330078000,523.0670776367188000,6.8120341300964355,37.5427207946777340,59,122,97,79,80,12153,2146962669,2147515483,2147300571,2147522185,2147088768,2146925449,2147722477,2147121353,3413,-1,8,53227
1359105670,5805,1000.8699951171875000,214.8374938964843800,523.1469726562500000,6.8095421791076660,37.4233818054199200,58,119,96,78,80,12148,2146962422,2147517156,2147296512,2147517074,2147089252,2146925851,2147723328,2147120310,3155,0,8,63325
1359109270,5806,1001.2899780273438000,214.4042053222656200,523.9727172851562000,6.7837920188903810,37.4626808166503900,58,118,99,79,81,12149,2146964379,2147518162,2147299236,2147518427,2147088667,2146921718,2147723382,2147120118,2922,-1,8,10561
1359112870,5806,1004.9799804687500000,215.5980987548828000,522.3372192382812000,6.8347940444946290,37.3651809692382800,58,120,99,79,80,12146,2146964644,2147520694,2147298203,2147520310,2147085330,2146921014,2147724150,2147121398,3300,-1,8,4005
1359116470,5808,1005.3900146484375000,217.6284027099609400,524.0593872070312000,6.7810878753662110,37.2805099487304700,56,116,97,79,81,12147,2146962953,2147517238,2147296804,2147519360,2147089673,2146922532,2147725074,2147121024,423,0,8,32297
1359120070,5810,1001.4600219726562000,214.6692047119140600,525.5720825195312000,6.7338929176330570,37.4758110046386700,57,116,98,81,82,12139,2146962724,2147517577,2147298121,2147521682,2147091300,2146925065,2147725586,2147119963,30,-1,8,36939
1359123670,5809,995.4899902343750000,217.9331970214843800,526.2388916015625000,6.7130889892578125,37.3018302917480500,57,116,99,79,81,12144,2146961069,2147516507,2147299712,2147518592,2147088054,2146926381,2147728429,2147121124,96,0,8,7312
1359127270,5804,991.5300292968750000,218.0211029052734400,528.5814208984375000,6.6399631500244140,37.3391494750976560,56,113,98,80,81,12131,2146965760,2147513892,2147297965,2147520045,2147088237,2146921042,2147724544,2147120246,3394,0,8,39640
1359130870,5807,993.7700195312500000,219.5592956542968800,529.2708129882812000,6.6184349060058590,37.2646598815918000,58,121,97,80,81,12125,2146964022,2147516050,2147297773,2147521042,2147088411,2146925632,2147724900,2147121408,110,-1,8,19402
1359134470,5805,991.7100219726562000,221.0375976562500000,529.3472290039062000,6.6160511970520020,37.1829414367675800,56,111,99,79,81,12131,2146966646,2147518454,2147297170,2147520402,2147091657,2146926034,2147723081,2147119917,3094,-1,9,56531
1359138070,5803,993.0800170898438000,220.7212982177734400,530.0712890625000000,6.5934348106384280,37.2138404846191400,57,114,100,79,81,12129,2146960832,2147514688,2147296246,2147520795,2147090304,2146924233,2147723629,2147119716,366,-1,8,43030
1359141670,5810,994.7800292968750000,223.0904998779297000,530.1586914062500000,6.5907058715820310,37.0831108093261700,56,116,98,79,81,12124,2146961097,2147518445,2147295396,2147519350,2147089106,2146921929,2147727707,2147119533,68,0,8,64401
1359145270,5806,1000.5399780273438000,223.1932067871093800,530.1513061523438000,6.5909352302551270,37.0774192810058600,57,119,97,81,81,12123,2146962560,2147520027,2147297426,2147521042,2147089033,2146924800,2147721115,2147122870,3339,-1,8,58013
1359148870,5807,998.9299926757812000,221.8155059814453000,528.6212768554688000,6.6387181282043460,37.1264495849609400,55,111,98,79,81,12104,2146961380,2147516617,2147292891,2147519808,2147088594,2146927570,2147722340,2147120237,105,-1,8,42314
1359152470,5808,997.2399902343750000,222.9179992675781200,529.2047729492188000,6.6204972267150880,37.0758781433105500,55,117,98,78,82,12118,2146961938,2147517988,2147294006,2147522185,2147088118,2146926317,2147723986,2147117531,763,-1,8,22077
1359156070,5807,1000.1599731445312000,222.3661956787109400,528.8375244140625000,6.6319680213928220,37.0999984741210940,54,119,96,80,80,12110,2146961883,2147517449,2147297782,2147521609,2147088841,2146920978,2147728073,2147119725,619,-1,8,41464
1359159670,5804,996.8599853515625000,221.1981964111328000,529.6531982421875000,6.6064929962158200,37.1799507141113300,55,112,99,80,80,12116,2146965449,2147518683,2147298523,2147521408,2147088914,2146928950,2147723099,2147122377,3534,0,8,54847
1359163270,5808,1002.3800048828125000,221.3399963378906200,527.9854125976562000,6.6585707664489750,37.1415710449218750,56,116,97,79,81,12113,2146965403,2147514560,2147296320,2147518537,2147088731,2146924516,2147725357,2147121261,361,-1,8,36759
1359166870,5804,1000.7600097656250000,220.6551971435547000,528.0305175781250000,6.6571660041809080,37.1805686950683600,55,118,98,79,81,12108,2146965741,2147517229,2147297828,2147517796,2147088804,2146925696,2147724745,2147120429,3493,-1,8,54821
1359170470,5806,1006.6699829101562000,220.4122924804687500,527.2943725585938000,6.6801428794860840,37.1809806823730500,55,142,98,79,81,12106,2146962742,2147517842,2147298688,2147517394,2147088996,2146923721,2147723291,2147121408,329,0,8,60649
1359174070,5806,1002.2700195312500000,221.5982971191406200,528.1262817382812000,6.6541748046875000,37.1298599243164060,55,112,98,78,80,12108,2146966966,2147515830,2147297362,2147521014,2147088996,2146928676,2147718445,2147121051,297,0,8,11321
1359177670,5807,1005.1500244140625000,221.1358947753906200,527.7899780273438000,6.6646728515625000,37.1500091552734400,56,111,99,79,81,12108,2146962660,2147518683,2147299593,2147517677,2147087186,2146923922,2147722459,2147120237,196,-1,8,22868
1359181270,5806,1010.8200073242188000,220.1107025146484400,525.9993286132812000,6.7205657958984375,37.1751594543457000,56,112,98,79,80,12106,2146964416,2147517238,2147297398,2147522194,2147087945,2146919396,2147724096,2147120987,1220,0,8,52073
1359184870,5807,1007.4899902343750000,220.5502014160156200,526.3873291015625000,6.7084579467773440,37.1569595336914060,56,115,99,78,81,12103,2146963410,2147518747,2147297152,2147519798,2147088694,2146923922,2147718272,2147120740,1287,-1,8,14181
1359188470,5809,996.6199951171875000,222.7505950927734400,529.8432006835938000,6.6005592346191410,37.0968513488769500,55,112,98,78,81,12104,2146965778,2147516150,2147298779,2147521206,2147089737,2146923428,2147724086,2147122569,3590,-1,8,7015
1359192070,5809,991.4500122070312000,223.8323974609375000,532.2789916992188000,6.5244560241699220,37.0801200866699200,56,110,102,79,81,12105,2146965613,2147516754,2147300918,2147517833,2147089792,2146922880,2147725961,2147123392,71,-1,8,39325
1359195670,5806,983.6799926757812000,226.9606018066406200,534.1751098632812000,6.4651870727539060,36.9430313110351560,55,113,97,78,81,12104,2146963657,2147518921,2147297517,2147520109,2147088941,2146922157,2147724763,2147119268,3536,0,9,58675
1359199270,5806,992.5300292968750000,229.4642944335937500,534.9860229492188000,6.4398288726806640,36.8227005004882800,55,113,98,79,81,12085,2146964781,2147514752,2147301065,2147520530,2147088512,2146922368,2147722578,2147122496,250,-1,8,53645
1359202870,5807,998.7199707031250000,226.6885070800781200,532.6956787109375000,6.5114350318908690,36.9320182800293000,56,114,97,79,81,12097,2146961938,2147513782,2147298852,2147521947,2147085412,2146919076,2147728969,2147119780,183,-1,8,43901
1359206470,5809,998.2000122070312000,224.6181030273437500,533.0239868164062000,6.5011730194091800,37.0500488281250000,57,116,98,79,80,12104,2146961572,2147515474,2147299904,2147518692,2147087789,2146927259,2147724205,2147123474,242,0,8,64498
1359210070,5808,993.8200073242188000,224.1454925537109400,534.2822265625000000,6.4618377685546875,37.0995597839355500,56,115,98,78,81,12106,2146965056,2147515529,2147298349,2147517074,2147089481,2146925248,2147723190,2147121334,291,-1,8,53808
1359210354,5803,95.0000000000000000,225.7624053955078000,533.9791870117188000,6.4713120460510250,37.0047187805175800,57,115,98,78,79,12130,2146961554,2147516361,2147298889,2147520978,2147088109,2146924480,2147723776,2147123931,3548,0,8,49027
